Location: Izdebno
(52.6670°N, 16.2170°E)
Time: 08:11:37
(UTC+01:00)

SR - All Passes

Search period start: 06 February 2023 00:00
Search period end: 16 February 2023 00:00
Orbit: 581 x 869 km, 66.7° (Epoch: 05 February)

Date Brightness Start Highest point End Pass type
(mag) Time Alt. Az. Time Alt. Az. Time Alt. Az.
06 Feb - 13:09:22 10° S 13:13:38 27° ESE 13:17:37 10° ENE daylight
06 Feb - 14:50:25 10° SW 14:55:22 61° NW 14:59:57 10° NE daylight
06 Feb - 16:34:40 10° WNW 16:38:12 20° NNW 16:41:34 10° NNE daylight
06 Feb - 18:19:31 10° NNW 18:21:52 14° N 18:24:08 10° NNE visible
06 Feb - 20:01:55 10° NNW 20:05:27 23° NNE 20:08:52 10° E visible
06 Feb - 21:43:40 10° NW 21:48:02 87° NE 21:52:17 10° SE visible
06 Feb - 23:26:57 10° WNW 23:29:19 15° WSW 23:31:40 10° SW night (unlit)
07 Feb - 12:20:41 10° SE 12:23:29 15° ESE 12:26:12 10° ENE daylight
07 Feb - 13:59:49 10° SSW 14:04:52 80° SE 14:09:31 10° NE daylight
07 Feb - 15:43:09 10° W 15:47:18 27° NNW 15:51:12 10° NNE daylight
07 Feb - 17:28:15 10° NW 17:30:44 14° N 17:33:10 10° NNE visible
07 Feb - 19:11:30 10° NNW 19:14:29 17° NNE 19:17:23 10° ENE visible
07 Feb - 20:53:14 10° NNW 20:57:29 49° NE 21:01:37 10° ESE visible
07 Feb - 22:35:33 10° WNW 22:39:15 28° WSW 22:42:51 10° S night (unlit)
08 Feb - 13:09:41 10° SSW 13:14:29 44° ESE 13:18:56 10° NE daylight
08 Feb - 14:51:54 10° WSW 14:56:32 40° NW 15:00:52 10° NNE daylight
08 Feb - 16:36:41 10° WNW 16:39:40 16° NNW 16:42:33 10° NNE daylight
08 Feb - 18:20:55 10° NNW 18:23:25 14° N 18:25:52 10° NE visible
08 Feb - 20:02:52 10° NNW 20:06:47 30° NE 20:10:35 10° E visible
08 Feb - 21:44:46 10° NW 21:49:00 54° WSW 21:53:07 10° SSE visible
09 Feb - 12:20:10 10° SSE 12:24:14 25° ESE 12:28:04 10° ENE daylight
09 Feb - 14:00:58 10° SW 14:05:55 66° NW 14:10:29 10° NE daylight
09 Feb - 15:45:04 10° WNW 15:48:40 21° NNW 15:52:06 10° NNE daylight
09 Feb - 17:30:01 10° NNW 17:32:19 14° N 17:34:33 10° NNE visible
09 Feb - 19:12:31 10° NNW 19:15:55 21° NNE 19:19:15 10° ENE visible
09 Feb - 20:54:13 10° NW 20:58:35 80° NE 21:02:49 10° SE visible
09 Feb - 22:37:17 10° WNW 22:39:56 16° WSW 22:42:35 10° SSW night (unlit)
10 Feb - 11:31:44 10° SE 11:34:07 13° ESE 11:36:27 10° E daylight
10 Feb - 13:10:26 10° SSW 13:15:25 73° SE 13:20:03 10° NE daylight
10 Feb - 14:53:36 10° W 14:57:48 29° NNW 15:01:45 10° NNE daylight
10 Feb - 16:38:41 10° NW 16:41:12 14° N 16:43:39 10° NNE daylight
10 Feb - 18:22:04 10° NNW 18:24:56 17° NNE 18:27:44 10° ENE visible
10 Feb - 20:03:48 10° NNW 20:08:00 45° NE 20:12:05 10° ESE visible
10 Feb - 21:46:02 10° NW 21:49:49 31° WSW 21:53:34 10° S visible
11 Feb - 12:20:22 10° S 12:25:04 40° ESE 12:29:25 10° NE daylight
11 Feb - 14:02:23 10° WSW 14:07:03 43° NW 14:11:25 10° NNE daylight
11 Feb - 15:47:05 10° WNW 15:50:07 17° NNW 15:53:03 10° NNE daylight
11 Feb - 17:31:27 10° NNW 17:33:52 14° N 17:36:14 10° NE visible
11 Feb - 19:13:26 10° NNW 19:17:16 29° NNE 19:20:59 10° E visible
11 Feb - 20:55:17 10° NW 20:59:32 60° WSW 21:03:43 10° SSE visible
12 Feb - 11:30:58 10° SSE 11:34:50 23° ESE 11:38:28 10° ENE daylight
12 Feb - 13:11:30 10° SW 13:16:27 72° NW 13:21:02 10° NE daylight
12 Feb - 14:55:29 10° WNW 14:59:09 22° NNW 15:02:38 10° NNE daylight
12 Feb - 16:40:28 10° NNW 16:42:45 13° N 16:44:58 10° NNE daylight
12 Feb - 18:23:04 10° NNW 18:26:23 20° NNE 18:29:37 10° ENE visible
12 Feb - 20:04:46 10° NW 20:09:06 73° NE 20:13:20 10° SE visible
12 Feb - 21:47:38 10° WNW 21:50:33 18° WSW 21:53:26 10° SSW visible
13 Feb - 10:42:54 10° SE 10:44:44 12° ESE 10:46:32 10° E daylight
13 Feb - 12:21:02 10° SSW 12:25:59 67° SE 12:30:32 10° NE daylight
13 Feb - 14:04:02 10° W 14:08:17 30° NW 14:12:17 10° NNE daylight
13 Feb - 15:49:05 10° NW 15:51:38 14° N 15:54:06 10° NNE daylight
13 Feb - 17:32:37 10° NNW 17:35:23 16° NNE 17:38:05 10° NE visible
13 Feb - 19:14:22 10° NNW 19:18:30 41° NE 19:22:31 10° ESE visible
13 Feb - 20:56:30 10° NW 21:00:23 34° WSW 21:04:14 10° S visible
14 Feb - 11:31:04 10° S 11:35:38 37° ESE 11:39:53 10° NE daylight
14 Feb - 13:12:51 10° WSW 13:17:34 46° NW 13:21:57 10° NNE daylight
14 Feb - 14:57:28 10° WNW 15:00:34 17° NNW 15:03:33 10° NNE daylight
14 Feb - 16:41:57 10° NNW 16:44:17 14° N 16:46:35 10° NE daylight
14 Feb - 18:24:00 10° NNW 18:27:44 27° NNE 18:31:22 10° E visible
14 Feb - 20:05:48 10° NW 20:10:05 67° SW 20:14:17 10° SSE visible
15 Feb - 10:41:48 10° SSE 10:45:25 20° ESE 10:48:50 10° ENE daylight
15 Feb - 12:22:02 10° SW 12:26:58 78° NW 12:31:32 10° NE daylight
15 Feb - 14:05:52 10° W 14:09:36 22° NNW 14:13:09 10° NNE daylight
15 Feb - 15:50:55 10° NNW 15:53:10 13° N 15:55:22 10° NNE daylight
15 Feb - 17:33:37 10° NNW 17:36:50 19° NNE 17:39:57 10° ENE visible
15 Feb - 19:15:18 10° NW 19:19:37 66° NE 19:23:49 10° SE visible
15 Feb - 20:58:00 10° WNW 21:01:07 20° WSW 21:04:13 10° SSW visible
